sat.trackr.live / text

‹ back to catalog

STARLINK-35014

NORAD 65429 · 2025-192AB

PAYLOAD ACTIVE UNKNOWN

§ Identity

Operator
Country
US
Launch date
2025-08-31
Launch site
AFETR
Launch vehicle
Mass (kg)
RCS (m²)

Purposes: comms

External: N2YO · Heavens-Above · Gunter

§ Orbital elements

Epoch: 2026-05-24T16:10:28.471296Z

Period
94.11 min
Inclination
53.1583°
Eccentricity
0.0001281
Mean motion
15.30199137 rev/d
Perigee alt
474.3 km
Apogee alt
476.1 km
Semi-major
6,853.4 km
B*
3.8087e-4
RAAN
239.6963°
Arg perigee
91.5837°
Mean anomaly
268.5310°
Rev number
4,101

§ Raw data

STARLINK-350141 65429U 25192AB  26144.67394064  .00010938  00000+0  38087-3 0  99902 65429  53.1583 239.6963 0001281  91.5837 268.5310 15.30199137 41016

JSON: /api/v1/satellites/65429 · /tle

For live sub-satellite position, see the globe view (requires WebGL).

§ Visibility from observer

Set your observer location to see the next 7 days of passes ≥ 10°. The values pass through the URL so the page stays shareable.

No JS? Fill the form by hand. The geolocation button needs JavaScript.